Location: Township of Marena
(38.1747°N, 99.6798°W)
Time: 11:28:57
(UTC+00:00)

Cosmos 1400 Rocket - Pass Details

Date: 26 October 2020
Orbit: 521 x 568 km, 81.2° (Epoch: 24 November)

Event Time Altitude Azimuth Distance (km) Brightness Sun altitude
Rises 01:26:15 0° 207° (SSW) 2,754 6.8 -20.1°
Reaches altitude 10° 01:28:34 10° 216° (SW) 1,860 6.0 -20.6°
Maximum altitude 01:32:22 36° 283° (WNW) 915 4.5 -21.3°
Drops below altitude 10° 01:36:10 10° 351° (N) 1,860 5.6 -22.1°
Sets 01:38:29 0° 0° (N) 2,754 6.4 -22.5°
